Home   Weather   Bielsko-Biała   Past weeks

Flag for Poland Past Weather in Bielsko-Biała, Poland — Yesterday and Last 2 Weeks

Now
37 °F

Sunny.


Feels Like: 35 °F
Forecast: 13 / 22 °F
Wind: 3 mph from Southwest

Location: Katowice

Current Time: Jan 23, 2017 at 4:21:55 pm

Latest Report: Jan 23, 2017 at 3:00 pm


Visibility: 6 mi

Pressure: 30.26 "Hg

Humidity: 50%

Dew Point: 20 °F

Location of Bielsko-BiałaLocation

Past Weather in Bielsko-Biała — Graph

°F

Bielsko-Biała Temperature Yesterday

Maximum temperature yesterday: 39 °F (at 1:00 pm)
Minimum temperature yesterday: 23 °F (at 12:00 am)
Average temperature yesterday: 30 °F

High & Low Weather Summary for the Past Weeks

 TemperatureHumidityPressure
High41 °F (Jan 13, 12:00 pm)100% (Jan 23, 12:00 am)30.78 "Hg (Jan 23, 12:00 am)
Low-4 °F (Jan 9, 1:00 am)49% (Jan 9, 1:00 pm)29.38 "Hg (Jan 13, 7:00 am)
Average23 °F83%30.26 "Hg
* Reported Jan 8 2:00 pm — Jan 23 2:00 pm, Bielsko-Biała, Weather by CustomWeather, © 2017

Note: Actual official high and low records may vary slightly from our data, if they occured in-between our weather recording intervals... More about our weather records

Advertising

Bielsko-Biała Weather History for the Previous 24 Hours

Scroll right to see more
 ConditionsComfort  
Time TempWeatherWind HumidityBarometerVisibility
2:00 pm
Mon, Jan 23
35 °FSunny.2 mph55%30.27 "Hg4 mi
1:00 pm34 °FSunny.2 mph57%30.29 "Hg4 mi
12:00 pm32 °FSunny.2 mph61%30.31 "Hg4 mi
11:00 am30 °FSunny.1 mph69%30.34 "Hg4 mi
10:00 am25 °FFog.1 mph92%30.36 "Hg2 mi
9:00 am19 °FFog.No wind96%30.38 "Hg2 mi
8:00 am15 °FSunny.1 mph95%30.39 "Hg6 mi
7:00 am16 °FClear.1 mph96%30.40 "Hg6 mi
6:00 am15 °FClear.1 mph94%30.41 "Hg6 mi
5:00 am16 °FClear.1 mph95%30.41 "Hg6 mi
4:00 am16 °FClear.No wind95%30.42 "Hg6 mi
3:00 am18 °FClear.1 mph96%30.43 "Hg6 mi
2:00 am17 °FFog.No wind96%30.45 "Hg5 mi
1:00 am19 °FFog.No wind98%30.45 "Hg2 mi
12:00 am24 °FFog.1 mph100%30.45 "Hg2 mi
11:00 pm
Sun, Jan 22
23 °FFog.No wind98%30.47 "Hg1 mi
10:00 pm26 °FFog.1 mph98%30.46 "Hg3 mi
9:00 pm28 °FFog.2 mph96%30.46 "Hg5 mi
8:00 pm28 °FClear.No wind93%30.47 "Hg6 mi
7:00 pm28 °FClear.No wind89%30.47 "Hg6 mi
6:00 pm27 °FClear.No wind83%30.48 "Hg6 mi
5:00 pm32 °FClear.1 mph73%30.47 "Hg6 mi
4:00 pm36 °FSunny.1 mph64%30.47 "Hg6 mi
Weather by CustomWeather, © 2017

See weather overviewHow to use our weather pages